Time,TemperatureF,DewpointF,PressureIn,WindDirection,WindDirectionDegrees,WindSpeedMPH,WindSpeedGustMPH,Humidity,HourlyPrecipIn,Conditions,Clouds,dailyrainin,SoftwareType,DateUTC
2013-06-25 00:01:00,75.0,73.0,30.06,WSW,247,0.0,0.0,94,0.00,,,0.00,,2013-06-25 05:01:00,
2013-06-25 00:11:00,75.0,73.0,30.06,ENE,61,0.0,1.0,95,0.00,,,0.00,,2013-06-25 05:11:00,
2013-06-25 00:22:00,75.0,73.0,30.06,ENE,61,0.0,0.0,95,0.00,,,0.00,,2013-06-25 05:22:00,
2013-06-25 00:32:00,75.0,74.0,30.07,SE,129,1.0,2.0,96,0.00,,,0.00,,2013-06-25 05:32:00,
2013-06-25 00:44:00,75.0,74.0,30.07,SE,129,1.0,2.0,96,0.00,,,0.00,,2013-06-25 05:44:00,
2013-06-25 00:52:00,76.0,74.0,30.06,SE,140,0.0,3.0,95,0.00,,,0.00,,2013-06-25 05:52:00,
2013-06-25 01:01:00,76.0,74.0,30.06,SE,140,0.0,0.0,95,0.00,,,0.00,,2013-06-25 06:01:00,
2013-06-25 01:11:00,76.0,74.0,30.06,SE,140,0.0,0.0,95,0.00,,,0.00,,2013-06-25 06:11:00,
2013-06-25 01:22:00,76.0,74.0,30.05,SE,140,0.0,0.0,95,0.00,,,0.00,,2013-06-25 06:22:00,
2013-06-25 01:33:00,76.0,75.0,30.05,SE,140,0.0,0.0,96,0.00,,,0.00,,2013-06-25 06:33:00,
2013-06-25 01:43:00,76.0,75.0,30.04,SE,140,0.0,0.0,96,0.00,,,0.00,,2013-06-25 06:43:00,
2013-06-25 01:52:00,76.0,75.0,30.04,SE,140,0.0,0.0,96,0.00,,,0.00,,2013-06-25 06:52:00,
2013-06-25 02:02:00,76.0,75.0,30.05,SSW,200,0.0,3.0,96,0.00,,,0.00,,2013-06-25 07:02:00,
2013-06-25 02:11:00,76.0,75.0,30.05,SSW,200,0.0,3.0,96,0.00,,,0.00,,2013-06-25 07:11:00,
2013-06-25 02:22:00,76.0,75.0,30.04,South,178,1.0,2.0,96,0.00,,,0.00,,2013-06-25 07:22:00,
2013-06-25 02:33:00,76.0,75.0,30.04,South,178,1.0,2.0,96,0.00,,,0.00,,2013-06-25 07:33:00,
2013-06-25 02:43:00,76.0,75.0,30.04,South,178,1.0,2.0,96,0.00,,,0.00,,2013-06-25 07:43:00,
2013-06-25 02:52:00,76.0,75.0,30.04,South,178,1.0,2.0,96,0.00,,,0.00,,2013-06-25 07:52:00,
2013-06-25 03:01:00,76.0,75.0,30.05,SE,138,0.0,0.0,96,0.00,,,0.00,,2013-06-25 08:01:00,
2013-06-25 03:11:00,76.0,75.0,30.05,SE,138,0.0,0.0,96,0.00,,,0.00,,2013-06-25 08:11:00,
2013-06-25 03:21:00,76.0,75.0,30.05,SE,138,0.0,0.0,96,0.00,,,0.00,,2013-06-25 08:21:00,
2013-06-25 03:34:00,75.0,74.0,30.05,SE,138,0.0,0.0,96,0.00,,,0.00,,2013-06-25 08:34:00,
2013-06-25 03:40:00,75.0,74.0,30.05,SE,138,0.0,0.0,96,0.00,,,0.00,,2013-06-25 08:40:00,
2013-06-25 03:43:00,75.0,74.0,30.05,SE,138,0.0,0.0,96,0.00,,,0.00,,2013-06-25 08:43:00,
2013-06-25 03:53:00,75.0,74.0,30.05,SE,138,0.0,0.0,96,0.00,,,0.00,,2013-06-25 08:53:00,
2013-06-25 04:02:00,75.0,74.0,30.05,SE,138,0.0,0.0,96,0.00,,,0.00,,2013-06-25 09:02:00,
2013-06-25 04:12:00,75.0,74.0,30.05,SE,138,0.0,0.0,96,0.00,,,0.00,,2013-06-25 09:12:00,
2013-06-25 04:22:00,75.0,74.0,30.05,SE,138,0.0,0.0,96,0.00,,,0.00,,2013-06-25 09:22:00,
2013-06-25 04:33:00,75.0,74.0,30.05,SE,138,0.0,0.0,96,0.00,,,0.00,,2013-06-25 09:33:00,
2013-06-25 04:53:00,74.0,73.0,30.05,SE,138,0.0,0.0,97,0.00,,,0.00,,2013-06-25 09:53:00,
2013-06-25 05:01:00,74.0,73.0,30.06,SE,138,0.0,0.0,97,0.00,,,0.00,,2013-06-25 10:01:00,
2013-06-25 05:11:00,74.0,73.0,30.06,SE,138,0.0,0.0,97,0.00,,,0.00,,2013-06-25 10:11:00,
2013-06-25 05:21:00,74.0,73.0,30.06,SE,138,0.0,0.0,97,0.00,,,0.00,,2013-06-25 10:21:00,
2013-06-25 05:33:00,74.0,73.0,30.05,SE,138,0.0,0.0,97,0.00,,,0.00,,2013-06-25 10:33:00,
2013-06-25 05:42:00,74.0,73.0,30.05,SE,138,0.0,0.0,97,0.00,,,0.00,,2013-06-25 10:42:00,
2013-06-25 05:52:00,74.0,73.0,30.06,SE,138,0.0,0.0,97,0.00,,,0.00,,2013-06-25 10:52:00,
2013-06-25 06:02:00,74.0,73.0,30.06,SE,138,0.0,0.0,97,0.00,,,0.00,,2013-06-25 11:02:00,
2013-06-25 06:12:00,74.0,73.0,30.06,SE,138,0.0,0.0,97,0.00,,,0.00,,2013-06-25 11:12:00,
2013-06-25 06:43:00,74.0,73.0,30.06,SE,138,0.0,0.0,97,0.00,,,0.00,,2013-06-25 11:43:00,
2013-06-25 06:52:00,74.0,73.0,30.06,SE,138,0.0,0.0,97,0.00,,,0.00,,2013-06-25 11:52:00,
2013-06-25 07:02:00,74.0,73.0,30.06,SE,138,0.0,0.0,97,0.00,,,0.00,,2013-06-25 12:02:00,
2013-06-25 07:11:00,74.0,73.0,30.06,SE,138,0.0,0.0,97,0.00,,,0.00,,2013-06-25 12:11:00,
2013-06-25 07:22:00,75.0,74.0,30.06,SE,143,1.0,3.0,98,0.00,,,0.00,,2013-06-25 12:22:00,
2013-06-25 07:33:00,75.0,74.0,30.06,SE,143,1.0,3.0,98,0.00,,,0.00,,2013-06-25 12:33:00,
2013-06-25 07:43:00,76.0,75.0,30.06,SSE,151,4.0,7.0,97,0.00,,,0.00,,2013-06-25 12:43:00,
2013-06-25 07:55:00,76.0,75.0,30.06,SSE,151,4.0,7.0,97,0.00,,,0.00,,2013-06-25 12:55:00,
2013-06-25 08:02:00,76.0,75.0,30.06,SSE,151,4.0,7.0,97,0.00,,,0.00,,2013-06-25 13:02:00,
2013-06-25 08:11:00,76.0,75.0,30.06,SSE,151,4.0,7.0,97,0.00,,,0.00,,2013-06-25 13:11:00,
2013-06-25 08:22:00,80.0,77.0,30.06,South,183,3.0,6.0,90,0.00,,,0.00,,2013-06-25 13:22:00,
2013-06-25 08:34:00,81.0,77.0,30.05,SSE,153,3.0,5.0,87,0.00,,,0.00,,2013-06-25 13:34:00,
2013-06-25 08:42:00,81.0,77.0,30.05,SSE,153,3.0,5.0,87,0.00,,,0.00,,2013-06-25 13:42:00,
2013-06-25 08:53:00,81.0,77.0,30.05,SSE,153,3.0,5.0,87,0.00,,,0.00,,2013-06-25 13:53:00,
2013-06-25 09:01:00,83.0,78.0,30.04,SW,236,0.0,7.0,84,0.00,,,0.00,,2013-06-25 14:01:00,
2013-06-25 09:11:00,83.0,78.0,30.04,SW,236,0.0,7.0,84,0.00,,,0.00,,2013-06-25 14:11:00,
2013-06-25 09:23:00,84.0,78.0,30.03,SSW,202,1.0,5.0,81,0.00,,,0.00,,2013-06-25 14:23:00,
2013-06-25 09:34:00,84.0,78.0,30.03,SSW,202,1.0,5.0,81,0.00,,,0.00,,2013-06-25 14:34:00,
2013-06-25 09:43:00,84.0,78.0,30.03,SSW,202,1.0,5.0,81,0.00,,,0.00,,2013-06-25 14:43:00,
2013-06-25 09:53:00,85.0,77.0,30.02,SW,226,1.0,5.0,77,0.00,,,0.00,,2013-06-25 14:53:00,
2013-06-25 10:02:00,86.0,78.0,30.01,SSW,208,1.0,5.0,76,0.00,,,0.00,,2013-06-25 15:02:00,
2013-06-25 10:11:00,87.0,78.0,30.01,WSW,241,1.0,5.0,74,0.00,,,0.00,,2013-06-25 15:11:00,
2013-06-25 10:22:00,87.0,78.0,30.01,WSW,241,1.0,5.0,74,0.00,,,0.00,,2013-06-25 15:22:00,
2013-06-25 10:32:00,87.0,78.0,30.01,WSW,241,1.0,5.0,74,0.00,,,0.00,,2013-06-25 15:32:00,
2013-06-25 10:44:00,87.0,78.0,30.01,WSW,241,1.0,5.0,74,0.00,,,0.00,,2013-06-25 15:44:00,
2013-06-25 10:53:00,89.0,76.0,29.99,SSW,207,1.0,3.0,66,0.00,,,0.00,,2013-06-25 15:53:00,
2013-06-25 11:00:00,88.0,77.0,29.99,WSW,246,2.0,3.0,69,0.00,,,0.00,,2013-06-25 16:00:00,
2013-06-25 11:03:00,90.0,76.0,29.99,SSW,209,1.0,3.0,64,0.00,,,0.00,,2013-06-25 16:03:00,
2013-06-25 11:12:00,89.0,76.0,29.99,ENE,71,0.0,3.0,66,0.00,,,0.00,,2013-06-25 16:12:00,
2013-06-25 11:23:00,88.0,77.0,29.99,WSW,246,2.0,3.0,69,0.00,,,0.00,,2013-06-25 16:23:00,
2013-06-25 11:35:00,88.0,77.0,29.99,WSW,246,2.0,3.0,69,0.00,,,0.00,,2013-06-25 16:35:00,
2013-06-25 11:44:00,88.0,77.0,29.99,WSW,246,2.0,3.0,69,0.00,,,0.00,,2013-06-25 16:44:00,
2013-06-25 11:52:00,88.0,77.0,29.99,WSW,246,2.0,3.0,69,0.00,,,0.00,,2013-06-25 16:52:00,
2013-06-25 12:34:00,91.0,74.0,29.98,SW,222,1.0,3.0,57,0.00,,,0.00,,2013-06-25 17:34:00,
2013-06-25 12:44:00,91.0,76.0,29.98,West,272,0.0,3.0,61,0.00,,,0.00,,2013-06-25 17:44:00,
2013-06-25 12:53:00,90.0,76.0,29.98,SSW,210,0.0,5.0,63,0.00,,,0.00,,2013-06-25 17:53:00,
2013-06-25 13:02:00,90.0,75.0,29.98,West,273,2.0,5.0,61,0.00,,,0.00,,2013-06-25 18:02:00,
2013-06-25 13:12:00,90.0,75.0,29.98,West,273,2.0,5.0,61,0.00,,,0.00,,2013-06-25 18:12:00,
2013-06-25 13:22:00,90.0,75.0,29.97,NW,324,0.0,3.0,62,0.00,,,0.00,,2013-06-25 18:22:00,
2013-06-25 13:34:00,90.0,76.0,29.97,West,260,0.0,7.0,63,0.00,,,0.00,,2013-06-25 18:34:00,
2013-06-25 13:44:00,92.0,76.0,29.97,ESE,102,1.0,3.0,59,0.00,,,0.00,,2013-06-25 18:44:00,
2013-06-25 13:53:00,92.0,77.0,29.97,WSW,247,0.0,3.0,61,0.00,,,0.00,,2013-06-25 18:53:00,
2013-06-25 14:01:00,91.0,77.0,29.96,SW,232,1.0,2.0,64,0.00,,,0.00,,2013-06-25 19:01:00,
2013-06-25 14:12:00,91.0,77.0,29.96,SSE,160,2.0,6.0,63,0.00,,,0.00,,2013-06-25 19:12:00,
2013-06-25 14:22:00,92.0,76.0,29.96,SW,229,1.0,3.0,60,0.00,,,0.00,,2013-06-25 19:22:00,
2013-06-25 14:33:00,93.0,76.0,29.96,SW,233,1.0,6.0,58,0.00,,,0.00,,2013-06-25 19:33:00,
2013-06-25 14:44:00,93.0,76.0,29.96,SW,233,1.0,6.0,58,0.00,,,0.00,,2013-06-25 19:44:00,
2013-06-25 14:53:00,93.0,76.0,29.96,SW,233,1.0,6.0,58,0.00,,,0.00,,2013-06-25 19:53:00,
2013-06-25 15:02:00,93.0,76.0,29.96,SW,233,1.0,6.0,58,0.00,,,0.00,,2013-06-25 20:02:00,
2013-06-25 15:11:00,86.0,75.0,29.96,SE,139,1.0,6.0,71,0.00,,,0.00,,2013-06-25 20:11:00,
2013-06-25 15:22:00,87.0,76.0,29.96,SE,135,1.0,2.0,71,0.00,,,0.00,,2013-06-25 20:22:00,
2013-06-25 15:33:00,89.0,77.0,29.96,SSE,148,3.0,7.0,67,0.00,,,0.00,,2013-06-25 20:33:00,
2013-06-25 15:42:00,88.0,75.0,29.96,SSE,164,4.0,8.0,65,0.00,,,0.00,,2013-06-25 20:42:00,
2013-06-25 15:52:00,88.0,75.0,29.95,SSE,152,3.0,6.0,65,0.00,,,0.00,,2013-06-25 20:52:00,
2013-06-25 16:01:00,91.0,75.0,29.95,SE,142,2.0,3.0,60,0.00,,,0.00,,2013-06-25 21:01:00,
2013-06-25 16:11:00,91.0,75.0,29.95,SE,142,2.0,3.0,60,0.00,,,0.00,,2013-06-25 21:11:00,
2013-06-25 16:22:00,91.0,75.0,29.95,SE,142,2.0,3.0,60,0.00,,,0.00,,2013-06-25 21:22:00,
2013-06-25 16:34:00,93.0,74.0,29.93,NNW,329,1.0,3.0,54,0.00,,,0.00,,2013-06-25 21:34:00,
2013-06-25 16:43:00,93.0,74.0,29.93,NNW,329,1.0,3.0,54,0.00,,,0.00,,2013-06-25 21:43:00,
2013-06-25 16:53:00,93.0,74.0,29.93,NNW,329,1.0,3.0,54,0.00,,,0.00,,2013-06-25 21:53:00,
2013-06-25 17:01:00,93.0,73.0,29.92,West,279,2.0,5.0,53,0.00,,,0.00,,2013-06-25 22:01:00,
2013-06-25 17:11:00,93.0,73.0,29.92,West,279,2.0,5.0,53,0.00,,,0.00,,2013-06-25 22:11:00,
2013-06-25 17:22:00,92.0,74.0,29.92,West,274,1.0,3.0,56,0.00,,,0.00,,2013-06-25 22:22:00,
2013-06-25 17:34:00,92.0,74.0,29.92,West,274,1.0,3.0,56,0.00,,,0.00,,2013-06-25 22:34:00,
2013-06-25 17:42:00,91.0,73.0,29.91,SW,229,0.0,3.0,55,0.00,,,0.00,,2013-06-25 22:42:00,
2013-06-25 17:52:00,92.0,72.0,29.91,North,357,1.0,6.0,53,0.00,,,0.00,,2013-06-25 22:52:00,
2013-06-25 18:01:00,91.0,71.0,29.91,West,269,0.0,2.0,53,0.00,,,0.00,,2013-06-25 23:01:00,
2013-06-25 18:11:00,91.0,69.0,29.91,SW,230,1.0,3.0,48,0.00,,,0.00,,2013-06-25 23:11:00,
2013-06-25 18:22:00,91.0,69.0,29.91,SW,230,1.0,3.0,48,0.00,,,0.00,,2013-06-25 23:22:00,
2013-06-25 18:34:00,91.0,72.0,29.91,SSW,205,0.0,2.0,54,0.00,,,0.00,,2013-06-25 23:34:00,
2013-06-25 18:43:00,91.0,72.0,29.91,SSW,205,0.0,2.0,54,0.00,,,0.00,,2013-06-25 23:43:00,
2013-06-25 18:52:00,91.0,72.0,29.91,SSW,205,0.0,2.0,54,0.00,,,0.00,,2013-06-25 23:52:00,
2013-06-25 19:02:00,91.0,72.0,29.91,SSW,205,0.0,2.0,54,0.00,,,0.00,,2013-06-26 00:02:00,
2013-06-25 19:11:00,89.0,75.0,29.91,WSW,246,0.0,0.0,63,0.00,,,0.00,,2013-06-26 00:11:00,
2013-06-25 19:22:00,88.0,75.0,29.91,WSW,246,0.0,0.0,66,0.00,,,0.00,,2013-06-26 00:22:00,
2013-06-25 19:33:00,88.0,74.0,29.91,WSW,247,0.0,2.0,63,0.00,,,0.00,,2013-06-26 00:33:00,
2013-06-25 19:42:00,88.0,74.0,29.91,WSW,247,0.0,2.0,63,0.00,,,0.00,,2013-06-26 00:42:00,
2013-06-25 19:52:00,87.0,74.0,29.91,WSW,247,0.0,0.0,65,0.00,,,0.00,,2013-06-26 00:52:00,
2013-06-25 20:01:00,86.0,74.0,29.91,WSW,247,0.0,0.0,67,0.00,,,0.00,,2013-06-26 01:01:00,
2013-06-25 20:11:00,86.0,74.0,29.92,WSW,247,0.0,0.0,67,0.00,,,0.00,,2013-06-26 01:11:00,
2013-06-25 20:20:00,83.0,73.0,29.93,WSW,247,0.0,0.0,73,0.00,,,0.00,,2013-06-26 01:20:00,
2013-06-25 20:22:00,85.0,74.0,29.92,WSW,247,0.0,0.0,69,0.00,,,0.00,,2013-06-26 01:22:00,
2013-06-25 20:33:00,85.0,74.0,29.92,WSW,247,0.0,0.0,69,0.00,,,0.00,,2013-06-26 01:33:00,
2013-06-25 20:43:00,83.0,73.0,29.93,WSW,247,0.0,0.0,73,0.00,,,0.00,,2013-06-26 01:43:00,
2013-06-25 20:53:00,83.0,73.0,29.93,WSW,247,0.0,0.0,73,0.00,,,0.00,,2013-06-26 01:53:00,
2013-06-25 21:02:00,83.0,73.0,29.93,WSW,247,0.0,0.0,73,0.00,,,0.00,,2013-06-26 02:02:00,
2013-06-25 21:11:00,83.0,73.0,29.93,WSW,247,0.0,0.0,73,0.00,,,0.00,,2013-06-26 02:11:00,
2013-06-25 21:34:00,81.0,75.0,29.94,SE,127,0.0,0.0,82,0.00,,,0.00,,2013-06-26 02:34:00,
2013-06-25 21:43:00,81.0,75.0,29.95,South,174,0.0,3.0,82,0.00,,,0.00,,2013-06-26 02:43:00,
2013-06-25 21:53:00,81.0,75.0,29.95,South,174,0.0,3.0,82,0.00,,,0.00,,2013-06-26 02:53:00,
2013-06-25 22:02:00,81.0,75.0,29.95,South,174,0.0,3.0,82,0.00,,,0.00,,2013-06-26 03:02:00,
2013-06-25 22:11:00,81.0,75.0,29.95,South,174,0.0,3.0,82,0.00,,,0.00,,2013-06-26 03:11:00,
2013-06-25 22:22:00,81.0,76.0,29.96,SSW,199,0.0,0.0,84,0.00,,,0.00,,2013-06-26 03:22:00,
2013-06-25 22:33:00,80.0,75.0,29.96,SSW,199,0.0,0.0,85,0.00,,,0.00,,2013-06-26 03:33:00,
2013-06-25 22:43:00,80.0,75.0,29.96,SSW,199,0.0,0.0,85,0.00,,,0.00,,2013-06-26 03:43:00,
2013-06-25 22:52:00,80.0,75.0,29.97,SSW,199,0.0,0.0,86,0.00,,,0.00,,2013-06-26 03:52:00,
2013-06-25 23:01:00,80.0,76.0,29.97,SSW,199,0.0,0.0,87,0.00,,,0.00,,2013-06-26 04:01:00,
2013-06-25 23:12:00,80.0,76.0,29.97,SSW,199,0.0,0.0,87,0.00,,,0.00,,2013-06-26 04:12:00,
2013-06-25 23:22:00,80.0,76.0,29.97,SSW,199,0.0,0.0,87,0.00,,,0.00,,2013-06-26 04:22:00,
2013-06-25 23:33:00,79.0,75.0,29.98,SSW,199,0.0,0.0,88,0.00,,,0.00,,2013-06-26 04:33:00,
2013-06-25 23:43:00,79.0,75.0,29.98,SSW,199,0.0,0.0,88,0.00,,,0.00,,2013-06-26 04:43:00,
2013-06-25 23:53:00,79.0,75.0,29.98,SSW,199,0.0,0.0,88,0.00,,,0.00,,2013-06-26 04:53:00,